Location: Austin
(30.3000°N, 97.7500°W)
Time: 05:54:55
(UTC-06:00)

IRS-P3 - Pass Details

Date: 03 March 2026
Orbit: 811 x 815 km, 99.0° (Epoch: 6 March)

Event Time Altitude Azimuth Distance (km) Brightness Sun altitude
Rises 18:44:54 0° 163° (SSE) 3,322 7.2 -3.7°
Reaches altitude 10° 18:47:13 10° 162° (SSE) 2,394 6.4 -4.2°
Maximum altitude 18:52:31 81° 75° (ENE) 827 4.1 -5.4°
Drops below altitude 10° 18:57:51 10° 349° (N) 2,407 6.7 -6.5°
Sets 19:00:12 0° 349° (NNW) 3,342 7.4 -7.0°
